[[{"header":{"parameterUnit":"m.s-1","parameterCategory":1,"la1":30.2991,"la2":30.254,"lo1":-89.0895,"lo2":-89.0444,"dy":0.0017,"dx":0.0017,"nx":28,"ny":28,"refTime":"2025-06-20T21:00:00:Z","depth":0,"parameterNumber":2,"parameterNumberName":"U-component_of_WINDS"},"data":[0,0,0,0,0,0,0,0,0,0,0,0,0,0,0,0,0,0,0,0,0,0,0,0,0,0,0,0,0,0,0,0,0,0,0,0,0,0,0,0,0,0,0,0,0,0,0,0,0,0,0,0,0,0,0,0,0,0,-0.8146,-0.8145,0,-0.8101,-0.81,-0.81,-0.8069,-0.8069,-0.8069,-0.8069,-0.8022,-0.8021,-0.802,0,0,0,0,0,0,0,0,0,0,0,0,0,-0.8205,-0.8204,-0.8146,-0.8145,-0.8145,-0.8101,-0.81,-0.81,-0.8069,-0.8069,-0.8069,-0.8068,-0.8022,-0.8021,-0.802,0,0,0,0,0,0,0,0,0,0,0,0,0,-0.8171,-0.8203,-0.8146,-0.8124,-0.8122,-0.8101,-0.81,-0.81,-0.8069,-0.8069,-0.8069,-0.8068,-0.8022,-0.8021,-0.8019,-0.8016,0,0,-0.8015,-0.8014,0,0,0,0,0,0,0,0,-0.8173,-0.8169,-0.8128,-0.8126,-0.8123,-0.809,-0.8104,-0.8072,-0.8069,-0.8089,-0.8069,-0.8068,-0.8045,-0.8041,-0.8034,-0.8014,-0.8012,-0.8014,-0.8014,-0.8013,-0.8012,0,0,0,0,0,0,0,-0.8176,-0.8171,-0.8128,-0.8127,-0.8124,-0.8117,-0.8111,-0.8098,-0.8069,-0.8087,-0.8085,-0.808,-0.8043,-0.8035,-0.8032,-0.8011,-0.8015,-0.8013,-0.8012,-0.8012,-0.7987,-0.7987,0,0,0,0,0,0,-0.8181,-0.8173,-0.8129,-0.8127,-0.8148,-0.8116,-0.811,-0.8101,-0.8069,-0.8064,-0.8081,-0.8079,-0.8038,-0.8034,-0.8031,-0.8024,-0.8013,-0.8011,-0.801,-0.7987,-0.7987,-0.7987,0,0,0,0,0,0,-0.8183,-0.8178,-0.8131,-0.8149,-0.8143,-0.8115,-0.8105,-0.81,-0.8092,-0.8064,-0.8059,-0.8078,-0.8038,-0.8033,-0.802,-0.8022,-0.8011,-0.8009,-0.7986,-0.7987,-0.7987,-0.8013,0,0,0,0,0,0,-0.8185,-0.8178,-0.8177,-0.8149,-0.8142,-0.8122,-0.8105,-0.81,-0.809,-0.8087,-0.806,-0.8055,-0.8037,-0.8023,-0.8019,-0.802,-0.8008,-0.7986,-0.7987,-0.7987,-0.8012,-0.8014,-0.8016,0,0,0,0,0,-0.8187,-0.8186,-0.8177,-0.8172,-0.814,-0.8122,-0.8118,-0.8097,-0.809,-0.8088,-0.807,-0.8056,-0.8023,-0.8022,-0.8017,-0.8018,-0.7986,-0.7987,-0.7987,-0.8011,-0.8014,-0.8016,0,0,0,0,0,0,-0.8214,-0.8182,-0.8172,-0.8162,-0.8145,-0.8117,-0.8114,-0.8101,-0.8085,-0.8084,-0.8058,-0.8052,-0.8042,-0.8029,-0.8028,-0.8013,-0.8003,-0.8002,-0.8022,-0.8025,-0.8027,-0.803,-0.8007,0,0,0,0,0,-0.8219,-0.8208,-0.818,-0.8174,-0.8166,-0.8142,-0.8133,-0.8119,-0.81,-0.8093,-0.8074,-0.8056,-0.8042,-0.8033,-0.8018,-0.801,-0.8003,-0.8008,-0.8011,-0.8013,-0.8012,-0.8007,-0.8009,-0.799,-0.799,-0.799,0,0,-0.8229,-0.821,-0.8204,-0.8179,-0.8164,-0.8153,-0.8136,-0.8124,-0.8116,-0.8091,-0.8078,-0.8064,-0.8042,-0.8032,-0.8026,-0.802,-0.8016,-0.8013,-0.8015,-0.8014,-0.8008,-0.801,-0.8011,-0.799,-0.799,-0.799,0,0,-0.8241,-0.8226,-0.8219,-0.8205,-0.8183,-0.8167,-0.8165,-0.8139,-0.8129,-0.8115,-0.8097,-0.8086,-0.8061,-0.8047,-0.8036,-0.8044,-0.803,-0.804,-0.8051,-0.8046,-0.8048,-0.8049,-0.8051,-0.8052,-0.804,-0.804,-0.804,0,-0.8256,-0.8238,-0.8217,-0.8207,-0.8196,-0.8174,-0.8167,-0.8154,-0.8128,-0.8121,-0.8115,-0.8084,-0.8068,-0.8054,-0.8056,-0.8048,-0.8046,-0.8042,-0.8049,-0.805,-0.8051,-0.8053,-0.8054,-0.8041,-0.8041,-0.8041,-0.8041,0,-0.8258,-0.8246,-0.8243,-0.8219,-0.8208,-0.82,-0.8177,-0.8168,-0.8155,-0.814,-0.8127,-0.8107,-0.8087,-0.8083,-0.807,-0.8067,-0.8064,-0.8054,-0.8043,-0.8054,-0.8056,-0.8056,-0.8043,-0.8042,-0.8042,-0.8042,0,0,-0.8285,-0.825,-0.8249,-0.8238,-0.8212,-0.8203,-0.8193,-0.8175,-0.8168,-0.8151,-0.8142,-0.8122,-0.8113,-0.8101,-0.8086,-0.8082,-0.8088,-0.8072,-0.8071,-0.8075,-0.8084,-0.8091,-0.8092,-0.808,-0.808,-0.808,-0.8085,0,-0.8293,-0.8274,-0.8255,-0.8244,-0.8232,-0.8211,-0.8203,-0.8186,-0.8172,-0.816,-0.8144,-0.813,-0.8119,-0.8111,-0.8106,-0.8089,-0.809,-0.8088,-0.807,-0.807,-0.8076,-0.8093,-0.81,-0.8107,-0.8086,-0.8086,-0.8086,0,-0.8299,-0.8284,-0.8271,-0.8247,-0.8241,-0.8234,-0.8215,-0.8204,-0.8185,-0.8175,-0.8162,-0.8146,-0.8135,-0.8126,-0.811,-0.8109,-0.8101,-0.8091,-0.8091,-0.8088,-0.8078,-0.809,-0.8108,-0.8109,-0.8086,-0.8086,-0.8086,0,-0.8319,-0.8295,-0.8285,-0.8276,-0.8247,-0.8243,-0.8231,-0.8211,-0.8201,-0.8185,-0.8179,-0.8162,-0.8152,-0.8139,-0.8119,-0.8115,-0.8105,-0.8094,-0.8096,-0.8096,-0.8094,-0.8094,-0.8111,-0.809,-0.809,-0.809,-0.809,0,-0.8329,-0.8322,-0.8294,-0.8287,-0.8278,-0.8257,-0.8249,-0.8235,-0.8218,-0.8208,-0.8189,-0.818,-0.8155,-0.8143,-0.8127,-0.8116,-0.8112,-0.8103,-0.8099,-0.8104,-0.8106,-0.8098,-0.8097,-0.809,-0.809,-0.809,-0.809,0,-0.835,-0.8331,-0.8318,-0.8292,-0.8286,-0.828,-0.8258,-0.8251,-0.8236,-0.8223,-0.8219,-0.8195,-0.818,-0.8159,-0.8138,-0.8128,-0.8118,-0.8112,-0.8125,-0.8122,-0.8125,-0.8125,-0.8137,-0.8137,-0.8117,-0.8117,-0.8117,0,-0.8358,-0.8352,-0.8326,-0.8318,-0.8307,-0.8294,-0.8284,-0.8263,-0.8253,-0.8231,-0.8227,-0.821,-0.8196,-0.8173,-0.8153,-0.8137,-0.813,-0.8135,-0.8127,-0.8133,-0.8129,-0.813,-0.8129,-0.8137,-0.8137,-0.8138,-0.8138,0,-0.8373,-0.8363,-0.835,-0.8333,-0.8322,-0.8308,-0.8293,-0.8288,-0.8263,-0.8253,-0.8238,-0.8227,-0.8205,-0.8189,-0.817,-0.8157,-0.8143,-0.8141,-0.814,-0.8145,-0.8153,-0.8148,-0.813,-0.814,-0.814,-0.814,-0.814,-0.814,-0.8386,-0.838,-0.8361,-0.8347,-0.8333,-0.832,-0.8312,-0.8296,-0.8283,-0.8264,-0.8252,-0.8237,-0.8218,-0.8191,-0.8179,-0.8167,-0.8162,-0.8161,-0.816,-0.816,-0.8162,-0.8155,-0.8164,-0.8164,-0.8164,-0.8164,-0.8163,0,-0.84,-0.8387,-0.8374,-0.8354,-0.8343,-0.8331,-0.8314,-0.8305,-0.8293,-0.8276,-0.8263,-0.8245,-0.823,-0.8209,-0.8192,-0.8187,-0.818,-0.8183,-0.8183,-0.818,-0.8168,-0.817,-0.8189,-0.8189,-0.8189,-0.8189,-0.8189,-0.8189,-0.8406,-0.8395,-0.8383,-0.8365,-0.8352,-0.8338,-0.8329,-0.8316,-0.8303,-0.8285,-0.8272,-0.8259,-0.8241,-0.8222,-0.8208,-0.8202,-0.8196,-0.8201,-0.8194,-0.8183,-0.8181,-0.8179,-0.818,-0.82,-0.82,-0.8206,-0.8206,-0.8206]},{"header":{"parameterUnit":"m.s-1","parameterCategory":1,"la1":30.2991,"la2":30.254,"lo1":-89.0895,"lo2":-89.0444,"dy":0.0017,"dx":0.0017,"nx":28,"ny":28,"refTime":"2025-06-20T21:00:00:Z","depth":0,"parameterNumber":3,"parameterNumberName":"V-component_of_WINDS"},"data":[0,0,0,0,0,0,0,0,0,0,0,0,0,0,0,0,0,0,0,0,0,0,0,0,0,0,0,0,0,0,0,0,0,0,0,0,0,0,0,0,0,0,0,0,0,0,0,0,0,0,0,0,0,0,0,0,0,0,0.0751,0.0751,0,0.0768,0.0768,0.0768,0.0801,0.0801,0.0802,0.0803,0.0819,0.0819,0.0819,0,0,0,0,0,0,0,0,0,0,0,0,0,0.0746,0.0746,0.0751,0.0751,0.0752,0.0768,0.0768,0.0768,0.0801,0.0801,0.0802,0.0803,0.0819,0.0819,0.0819,0,0,0,0,0,0,0,0,0,0,0,0,0,0.0754,0.0746,0.0751,0.077,0.0771,0.0768,0.0768,0.0769,0.08,0.0801,0.0802,0.0803,0.0819,0.0819,0.0819,0.0799,0,0,0.0818,0.0818,0,0,0,0,0,0,0,0,0.0754,0.0754,0.0767,0.0768,0.077,0.0783,0.0773,0.0779,0.08,0.0789,0.0803,0.0804,0.0807,0.0807,0.0809,0.08,0.08,0.0818,0.0818,0.0818,0.0818,0,0,0,0,0,0,0,0.0753,0.0754,0.0758,0.0767,0.0769,0.0777,0.0779,0.0774,0.0792,0.079,0.0793,0.0794,0.0808,0.0809,0.0809,0.0801,0.0818,0.0818,0.0818,0.0818,0.0775,0.0774,0,0,0,0,0,0,0.075,0.0753,0.0757,0.0758,0.0764,0.0776,0.0779,0.0778,0.0793,0.0796,0.0794,0.0796,0.0809,0.0809,0.081,0.0787,0.0818,0.0818,0.0818,0.0776,0.0775,0.0774,0,0,0,0,0,0,0.075,0.075,0.0757,0.0756,0.0758,0.0775,0.0774,0.0778,0.0779,0.0795,0.0798,0.0791,0.0809,0.081,0.0801,0.0788,0.0818,0.0818,0.0777,0.0776,0.0775,0.074,0,0,0,0,0,0,0.0749,0.075,0.0742,0.0756,0.0758,0.0748,0.0774,0.0778,0.0779,0.0782,0.0794,0.0796,0.081,0.0801,0.0801,0.0788,0.0818,0.0779,0.0777,0.0775,0.0742,0.0738,0.0733,0,0,0,0,0,0.0749,0.0732,0.0742,0.0742,0.0749,0.0747,0.0748,0.0764,0.0777,0.077,0.078,0.0796,0.0789,0.08,0.08,0.0787,0.078,0.0777,0.0775,0.0745,0.0739,0.0733,0,0,0,0,0,0,0.0716,0.0734,0.0745,0.0732,0.0738,0.0752,0.0744,0.0757,0.0759,0.0762,0.0782,0.0784,0.0773,0.0779,0.0791,0.0768,0.0787,0.0785,0.0764,0.0758,0.0754,0.0752,0.0817,0,0,0,0,0,0.0707,0.0705,0.072,0.0707,0.071,0.0726,0.0726,0.0738,0.0744,0.0747,0.0756,0.0762,0.0761,0.076,0.076,0.0744,0.0746,0.0734,0.073,0.0726,0.0724,0.0715,0.0709,0.0766,0.0767,0.0767,0,0,0.0689,0.0699,0.0696,0.0701,0.0707,0.0703,0.0728,0.0723,0.072,0.0746,0.0738,0.0745,0.0753,0.074,0.0734,0.0745,0.0708,0.0723,0.072,0.072,0.0712,0.0706,0.0701,0.0765,0.0765,0.0765,0,0,0.0654,0.0661,0.0651,0.0656,0.0665,0.0676,0.0673,0.0686,0.0691,0.0684,0.0703,0.07,0.0698,0.0702,0.0704,0.067,0.0685,0.067,0.0646,0.0637,0.0632,0.0628,0.0616,0.0611,0.0668,0.0667,0.0667,0,0.063,0.0626,0.0644,0.0637,0.0639,0.0662,0.0652,0.0656,0.0664,0.0664,0.0675,0.0673,0.068,0.0668,0.066,0.0661,0.0658,0.0668,0.0632,0.0628,0.0624,0.0612,0.0608,0.0666,0.0666,0.0666,0.0666,0,0.0596,0.0592,0.0583,0.059,0.059,0.0582,0.0598,0.0596,0.0608,0.0618,0.0609,0.0618,0.062,0.0618,0.063,0.0608,0.0614,0.0628,0.0648,0.0617,0.0606,0.0601,0.0663,0.0663,0.0664,0.0664,0,0,0.054,0.0557,0.0553,0.0556,0.0567,0.0565,0.0557,0.0559,0.0557,0.0562,0.0555,0.0553,0.0566,0.0568,0.0581,0.0573,0.0545,0.0588,0.0589,0.0579,0.052,0.0508,0.0503,0.0555,0.0554,0.0553,0.0519,0,0.0507,0.0495,0.0511,0.0495,0.0491,0.0514,0.0507,0.0513,0.0521,0.052,0.0529,0.0527,0.0545,0.0546,0.054,0.0549,0.0533,0.0552,0.0548,0.0548,0.0545,0.0497,0.0485,0.0453,0.0515,0.0514,0.0514,0,0.0466,0.0469,0.0453,0.0464,0.0463,0.0457,0.046,0.0458,0.0465,0.0472,0.0474,0.0489,0.0482,0.0501,0.0491,0.0504,0.0504,0.0508,0.0507,0.0507,0.0528,0.0495,0.0443,0.0438,0.0507,0.0508,0.0508,0,0.0426,0.0426,0.0416,0.0418,0.0432,0.0426,0.0432,0.044,0.044,0.0442,0.0442,0.0444,0.0445,0.0445,0.046,0.0473,0.0448,0.0469,0.0453,0.0452,0.0446,0.0446,0.0392,0.0447,0.0447,0.0447,0.0447,0,0.0387,0.0376,0.0398,0.0392,0.038,0.0399,0.0386,0.0394,0.0401,0.0396,0.0416,0.0411,0.0431,0.0428,0.0439,0.0429,0.0429,0.0434,0.0437,0.0432,0.0432,0.0432,0.0434,0.0446,0.0446,0.0446,0.0446,0,0.034,0.0354,0.0345,0.0358,0.0362,0.0352,0.0364,0.0358,0.0368,0.0362,0.0362,0.0378,0.0375,0.039,0.0391,0.0398,0.0382,0.039,0.038,0.0382,0.0365,0.0366,0.0309,0.0302,0.0361,0.036,0.036,0,0.0313,0.0305,0.0318,0.0316,0.0321,0.0318,0.0318,0.0336,0.0335,0.0342,0.0336,0.0335,0.0336,0.0331,0.0342,0.0343,0.035,0.0329,0.035,0.0345,0.0348,0.0348,0.0347,0.0325,0.0324,0.0324,0.0323,0,0.0265,0.0272,0.0272,0.0274,0.0273,0.0276,0.0279,0.0277,0.0296,0.0294,0.0292,0.0292,0.0293,0.0292,0.0294,0.0299,0.0314,0.0317,0.0313,0.0307,0.0302,0.0304,0.0368,0.0318,0.0318,0.0319,0.0319,0.0319,0.0227,0.022,0.0228,0.0227,0.0232,0.0234,0.023,0.0239,0.0238,0.024,0.0251,0.0246,0.0253,0.0258,0.0262,0.0259,0.0268,0.0263,0.0261,0.026,0.0256,0.0303,0.0259,0.0259,0.026,0.026,0.026,0,0.0178,0.0184,0.0183,0.0187,0.0186,0.0201,0.0205,0.0203,0.02,0.0205,0.0205,0.0202,0.0201,0.0212,0.0213,0.0208,0.0214,0.0207,0.0207,0.0208,0.0248,0.0251,0.0202,0.0202,0.0202,0.0202,0.0202,0.0202,0.0153,0.0143,0.0151,0.0144,0.015,0.0146,0.0148,0.015,0.0154,0.0151,0.015,0.0157,0.0165,0.0166,0.0165,0.0169,0.0167,0.0158,0.0163,0.02,0.0205,0.0211,0.0214,0.0157,0.0157,0.0124,0.0123,0.0123]}]]